Total_Precipitation_Accumulation
0.28 0.42 0.76 0.78 0.78 0.78 0.80 0.74 0.71 0.75 0.84 0.94 0.91 0.84 0.82 0.80 0.80 0.77 0.81 0.83 0.89 0.91 0.96 1.08 1.13 1.13 1.12 1.08 0.89 0.68 0.53 0.47 0.44 0.36 0.36 0.40 0.48 0.55 0.46 0.47 0.52 0.62 0.75
0.29 0.46 0.74 0.77 0.84 0.88 0.90 0.81 0.73 0.73 0.82 0.93 0.99 0.95 0.99 1.01 0.98 0.95 0.92 0.91 0.93 0.96 1.03 1.01 0.90 0.81 0.76 0.71 0.60 0.53 0.46 0.33 0.26 0.18 0.14 0.19 0.34 0.49 0.46 0.43 0.50 0.69 0.79
0.29 0.45 0.69 0.83 0.91 0.91 0.91 0.83 0.72 0.72 0.80 0.91 1.03 1.07 1.09 1.09 1.08 1.13 1.10 1.03 1.06 1.01 1.03 0.94 0.73 0.63 0.58 0.53 0.47 0.44 0.41 0.27 0.19 0.14 0.12 0.18 0.29 0.47 0.47 0.49 0.64 0.81 0.86
0.33 0.47 0.61 0.90 0.98 0.92 0.89 0.88 0.77 0.76 0.82 0.90 1.01 1.13 1.14 1.17 1.27 1.36 1.21 1.14 1.13 0.95 0.87 0.80 0.67 0.55 0.47 0.43 0.40 0.38 0.36 0.28 0.19 0.14 0.20 0.27 0.34 0.61 0.66 0.71 0.84 0.82 0.83
0.43 0.55 0.77 1.02 1.09 1.04 0.99 0.98 0.93 0.86 0.87 0.95 1.06 1.20 1.27 1.33 1.39 1.31 1.21 1.10 0.99 0.86 0.79 0.70 0.56 0.48 0.42 0.37 0.36 0.35 0.33 0.24 0.15 0.13 0.20 0.30 0.46 0.81 0.87 0.91 0.95 0.85 0.80
0.55 0.67 0.91 1.11 1.24 1.25 1.16 1.07 1.03 0.97 0.94 0.95 1.07 1.20 1.28 1.40 1.34 1.22 1.14 0.99 0.86 0.78 0.76 0.65 0.54 0.45 0.40 0.35 0.36 0.36 0.31 0.23 0.14 0.17 0.26 0.31 0.46 0.87 0.95 1.00 1.00 0.96 0.92
0.69 0.81 0.97 1.16 1.27 1.29 1.28 1.16 1.07 1.06 1.04 1.02 1.11 1.18 1.30 1.38 1.30 1.24 1.09 0.92 0.83 0.78 0.80 0.72 0.62 0.50 0.42 0.37 0.36 0.33 0.28 0.20 0.13 0.17 0.28 0.37 0.54 0.91 1.06 1.08 1.06 0.99 1.00
0.91 1.07 1.15 1.33 1.31 1.31 1.27 1.23 1.14 1.13 1.11 1.12 1.21 1.22 1.25 1.33 1.29 1.26 1.11 0.98 0.88 0.82 0.80 0.73 0.67 0.59 0.49 0.41 0.37 0.32 0.25 0.18 0.12 0.14 0.24 0.36 0.55 0.90 1.10 1.02 1.01 0.93 0.93
1.31 1.47 1.43 1.44 1.31 1.34 1.33 1.25 1.20 1.15 1.18 1.20 1.24 1.19 1.18 1.18 1.19 1.17 1.05 0.96 0.94 0.89 0.84 0.78 0.69 0.63 0.53 0.44 0.38 0.30 0.22 0.15 0.12 0.13 0.17 0.31 0.51 0.83 1.05 1.09 1.03 0.99 1.00
1.68 1.87 1.83 1.68 1.50 1.39 1.38 1.31 1.27 1.23 1.19 1.17 1.09 0.93 0.90 0.97 1.03 1.00 0.85 0.83 0.85 0.85 0.88 0.83 0.76 0.67 0.56 0.47 0.37 0.29 0.22 0.17 0.13 0.15 0.20 0.29 0.54 0.85 1.07 1.13 1.10 1.04 1.05
2.04 2.15 2.21 2.06 1.80 1.62 1.49 1.33 1.38 1.36 1.25 1.16 1.01 0.85 0.82 0.88 0.92 0.82 0.70 0.69 0.76 0.80 0.84 0.86 0.79 0.70 0.58 0.47 0.39 0.32 0.26 0.22 0.18 0.18 0.22 0.37 0.71 0.97 1.10 1.07 1.03 1.02 1.06
2.10 2.20 2.37 2.27 2.11 1.93 1.69 1.47 1.51 1.51 1.32 1.17 0.97 0.93 0.92 0.91 0.95 0.84 0.74 0.70 0.76 0.74 0.75 0.87 0.86 0.76 0.64 0.49 0.42 0.37 0.32 0.26 0.26 0.23 0.27 0.47 0.83 1.04 1.09 1.01 0.97 0.96 0.97
2.21 2.40 2.50 2.52 2.29 2.20 2.05 1.71 1.54 1.55 1.50 1.38 1.17 1.07 1.06 1.02 1.04 1.06 0.91 0.86 0.86 0.73 0.68 0.70 0.79 0.68 0.58 0.53 0.47 0.41 0.37 0.34 0.33 0.32 0.34 0.48 0.74 0.99 1.11 1.01 0.98 0.99 0.98
2.37 2.44 2.55 2.72 2.58 2.30 2.15 1.99 1.78 1.67 1.62 1.52 1.36 1.31 1.31 1.19 1.04 1.06 1.01 0.90 0.94 0.87 0.77 0.73 0.70 0.66 0.64 0.61 0.54 0.49 0.46 0.45 0.35 0.36 0.38 0.47 0.64 0.87 1.07 1.11 1.06 1.08 1.09
2.38 2.52 2.60 2.69 2.74 2.56 2.35 2.16 1.97 1.82 1.72 1.77 1.71 1.59 1.53 1.44 1.24 1.14 1.12 1.14 1.11 1.07 0.98 0.88 0.83 0.83 0.80 0.78 0.68 0.56 0.53 0.52 0.46 0.41 0.40 0.43 0.50 0.72 0.96 1.13 1.24 1.27 1.31
2.27 2.47 2.61 2.72 2.84 2.83 2.55 2.38 2.20 1.95 1.78 1.82 1.85 1.76 1.77 1.72 1.65 1.54 1.48 1.40 1.34 1.28 1.21 1.10 1.03 1.04 1.01 0.93 0.85 0.69 0.60 0.59 0.60 0.57 0.53 0.49 0.48 0.56 0.82 1.07 1.28 1.42 1.50
2.25 2.48 2.53 2.65 2.86 2.92 2.82 2.66 2.44 2.26 1.98 1.88 1.79 1.76 1.81 1.78 1.76 1.76 1.74 1.74 1.68 1.61 1.51 1.41 1.33 1.27 1.22 1.13 1.01 0.90 0.80 0.71 0.70 0.72 0.71 0.62 0.57 0.56 0.72 1.00 1.21 1.40 1.54
2.28 2.48 2.57 2.62 2.79 2.84 2.89 2.96 2.83 2.67 2.41 2.13 1.97 1.92 1.89 1.87 1.82 1.79 1.72 1.65 1.68 1.81 1.84 1.72 1.57 1.45 1.31 1.25 1.18 1.03 0.88 0.81 0.76 0.77 0.80 0.81 0.76 0.66 0.65 0.84 1.05 1.25 1.39
2.21 2.41 2.59 2.64 2.84 2.93 2.94 3.00 3.00 2.86 2.77 2.58 2.25 1.99 1.96 2.03 2.01 1.93 1.83 1.76 1.78 1.70 1.76 1.82 1.72 1.53 1.42 1.35 1.30 1.21 1.04 0.91 0.84 0.81 0.79 0.80 0.83 0.76 0.70 0.73 0.82 0.97 1.14
2.12 2.30 2.51 2.61 2.79 3.11 3.22 3.18 3.16 2.91 2.68 2.69 2.53 2.27 2.08 2.11 2.21 2.11 1.92 1.90 1.98 1.88 1.76 1.71 1.75 1.66 1.50 1.46 1.43 1.36 1.24 1.12 1.04 0.95 0.89 0.87 0.86 0.82 0.79 0.72 0.71 0.76 0.89
2.06 2.24 2.40 2.53 2.64 2.91 3.11 3.12 3.02 2.87 2.62 2.51 2.49 2.41 2.32 2.24 2.33 2.34 2.13 1.99 2.00 1.92 1.81 1.79 1.79 1.84 1.79 1.70 1.74 1.65 1.49 1.35 1.24 1.13 1.05 1.03 0.98 0.95 0.91 0.87 0.83 0.77 0.76
1.83 2.06 2.29 2.42 2.54 2.58 2.66 2.91 3.07 3.12 2.94 2.67 2.52 2.44 2.34 2.26 2.27 2.30 2.32 2.23 2.12 2.05 1.98 1.98 2.01 2.03 2.04 2.02 2.03 2.04 1.89 1.72 1.40 1.18 1.12 1.10 1.05 1.03 1.01 0.97 0.89 0.83 0.76
1.59 1.84 2.13 2.30 2.44 2.49 2.55 2.84 3.08 3.25 3.08 2.74 2.41 2.28 2.30 2.29 2.29 2.21 2.22 2.29 2.27 2.20 2.07 2.02 2.03 2.07 2.11 2.10 2.08 2.23 2.05 1.71 1.38 1.22 1.08 1.03 1.05 1.07 1.05 1.08 1.07 1.00 0.91
1.41 1.61 1.78 2.00 2.17 2.38 2.49 2.59 2.67 2.80 2.82 2.55 2.41 2.32 2.36 2.39 2.36 2.30 2.25 2.26 2.26 2.21 2.09 2.06 2.01 2.00 2.08 2.10 2.08 2.01 1.90 1.61 1.46 1.34 1.17 1.06 1.05 1.07 1.12 1.14 1.16 1.18 1.15
1.26 1.51 1.67 1.75 1.95 2.18 2.35 2.41 2.56 2.59 2.62 2.68 2.64 2.52 2.43 2.41 2.36 2.30 2.26 2.27 2.19 2.12 2.09 2.15 2.10 2.08 2.09 2.08 2.01 1.95 1.96 1.77 1.53 1.47 1.32 1.16 1.15 1.10 1.16 1.24 1.23 1.23 1.21
1.19 1.36 1.57 1.59 1.67 1.85 2.13 2.36 2.41 2.38 2.44 2.48 2.47 2.41 2.39 2.40 2.36 2.27 2.17 2.14 2.11 2.10 2.10 2.15 2.21 2.16 2.15 2.17 2.10 1.98 1.99 2.00 1.79 1.69 1.59 1.35 1.31 1.23 1.15 1.20 1.25 1.24 1.22